Погода Ванжиль-Кынак

Погода Ванжиль-Кынак : погода сейчас, прогноз погоды и архив. Всё, что Вы хотите узнать о погоде Ванжиль-Кынак!

Хотите узнать прогноз погоды Ванжиль-Кынак? Тогда Вам сюда: Погода Ванжиль-Кынак

Поиск расширенной информации на нашем сайте:

Другие новости

Новости СМИ2

Главная страница сайта

Новости сайта

03.07.2017

Напоминаем, что на нашем специализированном сайте Метеоцентр.Азия вы можете получить высокодетализированные автоматические прогнозы погоды по пунктам России, СНГ и мира в авиационном формате (включающие направление и скорость ветра, видимость, явления погоды, количество и форму облачности, нижнюю и верхнюю границу облачности).


Погода Ванжиль-Кынак - сегодня

Время (UTC), дата Ветер
(°,м/с) 
Видим.   Явления Облачность Т
(°С)
Тd
(°С)
f(%) Тe
(°С)
Pmin
(гПа)
dP
(гПа)
Po
(мм)
O2
(г/м3)
Тmin Tmax R s Состояние
почвы
06 19.10.17 120 (ЮВ) 4000 м  слаб. ливневой снег  10/10 200 м кучево-дожд. 
[Cb cap]
-2.5 -3.1 96 -4  1015.7  -0.6  752  306           
09 19.10.17 130 (ЮВ) 10 км  {ливн. осадки}  10/10 300 м кучево-дожд. 
[Cb cap]
-2.4 -3 96 -3  1014.9  -0.8  752  306           
12 19.10.17 150 (ЮВ) 20000 м  {ливн. осадки}  10/10 300 м кучево-дожд. 
[Cb cap]
-2 -3.8 87 -1  1014.6  -0.3  752  305    -2  0.3     
15 19.10.17 140 (ЮВ) 4000 м  слаб. ливневой снег  10/10 300 м кучево-дожд. 
[Cb cap]
-0.8 -1.8 93 1014.6  752  304           
18 19.10.17 150 (ЮВ) 4000 м  слаб. ливневой снег  10/10 300 м кучево-дожд. 
[Cb cap]
-0.2 -0.8 96 1013.3  -1.2  751  303           
21 19.10.17 120 (ЮВ) 4000 м  дымка  10/10 300 м кучево-дожд. 
[Cb cap]
+0.6 -0.2 94 1012.2  -1.1  750  301           
00 20.10.17 140 (ЮВ) 4000 м  дымка{ливн. осадки}  10/10 300 м кучево-дожд. 
[Cb cap]
+1 +0.5 96 +2  1010.9  -1.3  749  301  -2.1    0.0  <0.5  мокрый или
старый снег
50-90% 
03 20.10.17 150 (ЮВ) 4000 м  дымка  10/10 200 м 
[St]
+1.8 +1.3 96 +1  1010.8  749  300           
06 20.10.17 140 (ЮВ) 10 км    10/10 200 м 
[St]
+2.8 +2.3 97 +1  1009.7  -1  748  298           
09 20.10.17 110 (В) 10 км    10/10 300 м 
[St]
+3.7 +3 95 +3  1007.7  -1.9  747  296           
12 20.10.17 130 (ЮВ) 4000 м  слаб. морось{ливн. осадки}  10/10 200 м 
[St]
+4 +3.5 97 +4  1006.2  -1.5  746  295    +4     
15 20.10.17 120 (ЮВ) 4000 м  слаб. морось  10/10 200 м 
[St]
+4.1 +3.4 95 +4  1003.6  -2.6  744  295           
18 20.10.17 100 (В) 4000 м  слаб. ливневой дождь{морось}  10/10 300 м кучево-дожд. 
[Cb cap]
+3.9 +3.4 97 +5  1000.7  -2.9  741  294           
21 20.10.17 140 (ЮВ) 4000 м  слаб. ливневой дождь  10/10 300 м кучево-дожд. 
[Cb cap]
+3.9 +3.2 95 +5  998  -2.6  739  293           
00 21.10.17 190 (Ю) 4000 м  слаб. ливневой дождь  10/10 300 м кучево-дожд. 
[Cb cap]
+3.2 +2.7 97 +3  997.4  -0.7  739  294  +3.1       
03 21.10.17 200 (Ю) 10 км  {ливн. осадки}  8/3 300 м кучево-дожд., средняя, верхняя 
[Cb cap|Ac trans|Ci fib]
+2 +0.9 92 +1  999.2  1.8  740  296  +2         
06 21.10.17 190 (Ю) 10 км  в посл. час ливневой дождь  10/10 300 м кучево-дожд. 
[Cb cap]
+3 +2 93 +2  999.5  0.3  740  295           
09 21.10.17 180 (Ю) 10 км  в посл. час ливневой дождь  10/10 300 м кучево-дожд. 
[Cb cap]
+3 +2 93 +2  999.9  0.4  741  295           
12 21.10.17 180 (Ю) 20000 м  {ливн. осадки}  10/10 300 м кучево-дожд. 
[Cb cap]
+2.2 +1.7 96 +3  1000.5  0.5  741  296    +3.6     
15 21.10.17 210 (ЮЗ) 2000 м  ливневой снег  10/10 300 м кучево-дожд. 
[Cb cap]
+0.4 -0.2 96 1001.3  0.7  742  298           
18 21.10.17 тихо ()   4000 м  слаб. ливневой снег  10/10 300 м кучево-дожд. 
[Cb cap]
+0.3 -0.3 96 1001.6  0.3  742  299           
21 21.10.17 тихо ()   20000 м  {ливн. осадки}  10/10 300 м кучево-дожд. 
[Cb cap]
+0.1 -0.8 94 1002  0.4  742  299           
00 22.10.17 тихо ()   20000 м  {ливн. осадки}  10/10 300 м кучево-дожд. 
[Cb cap]
+0.1 -0.8 94 1001.8  -0.2  742  299  +0    равномерный
мокрый или
старый снег
100% 
03 22.10.17 200 (Ю) 10 км    10/10 300 м кучево-дожд. 
[Cb cap]
+0 -1.2 92 +1  1002.7  0.9  743  299           
06 22.10.17 220 (ЮЗ) 4000 м  слаб. ливневой снег  10/10 300 м кучево-дожд. 
[Cb cap]
+0.2 -0.9 92 +1  1003.2  0.5  743  299           
Время (UTC), дата Ветер
(°,м/с) 
Видим.   Явления Облачность Т
(°С)
Тd
(°С)
f(%) Тe
(°С)
Pmin
(гПа)
dP
(гПа)
Po
(мм)
O2
(г/м3)
Тmin Tmax R s Состояние
почвы

Для получения пояснительной информации подведите курсор к названию столбца.

ПОГОДА Ванжиль-Кынак - архив

Всё, что Вы хотите узнать о погоде Ванжиль-Кынак - удобно и подробно!

Выберите нужную дату (начиная с 1 января 2015* года) и нажмите кнопку "Найти".
Будут отображены архивные сводки погоды по пункту Ванжиль-Кынак, начиная с указанной даты.


Отображать данные в формате CSV (для использования в таблицах Excel)


Внимание! Наш архив погоды предназначен исключительно для личного некоммерческого использования в познавательных целях. Если Вам необходимы официальные справки о состоянии погоды (для производственных, юридических, коммерческих и т.п. целей), обращайтесь в органы Росгидромета.

*Примечание: данная дата относится к архиву по метеостанциям СССР (Россия, СНГ, Балтия).
Архив по метеостанциям Зарубежной Европы и Азии (кроме Китая) хранится 10 дней, по другим регионам земного шара (Китай, Африка, Америка, Австралия, Океания) - 1 день.

Ванжиль-Кынак - район местоположения метеостанции


Название, широта, долгота, высота метеостанции:
Ванжиль-Кынак 60.3°ш. 84.1°д. 99 м над ур. моря [Российская Федерация]

Дополнительная информация

В oтличие oт бoльшинства пoгoдных сайтoв мы публикуем пoдрoбную метеoинфoрмацию в детальнoм прoфессиoнальнoм фoрмате.

Характеристики температуры и влажнoсти вoздуха измеряются на высoте 2 м в тени вдали oт зданий и деревьев.
Скoрoсть ветра измеряется на высoте 10 м (на урoвне рoста челoвека скoрoсть ветра ниже в 1.5-2 раза). Если метеoстанция нахoдится в гoрoде или в лесу, тo скoрoсть ветра занижена на 2-4 м/с пo сравнению с oткрытым местoм. Скoрoсть ветра над акватoриями крупных рек и oзёр, а также на вершинах хoлмoв на 2-5 м/с выше, чем в oбычных услoвиях.
Атмoсфернoе давление в разных тoчках местнoсти мoжет значительнo oтличаться oт давления на метеoстанции, в зависимoсти oт услoвий рельефа (при пoдъёме на 10 м давление пoнижается примернo на 1 мм рт.ст.).